Year,Month,Day,Hour,Minute,Value (Times are PST for temperature in C)
2013,06,29,00,00,16.10
2013,06,29,00,01,16.10
2013,06,29,00,02,16.10
2013,06,29,00,03,16.00
2013,06,29,00,04,16.00
2013,06,29,00,05,16.00
2013,06,29,00,06,16.00
2013,06,29,00,07,16.00
2013,06,29,00,08,16.00
2013,06,29,00,09,15.90
2013,06,29,00,10,15.90
2013,06,29,00,11,15.90
2013,06,29,00,12,15.90
2013,06,29,00,13,15.90
2013,06,29,00,14,15.90
2013,06,29,00,15,15.90
2013,06,29,00,16,15.90
2013,06,29,00,17,15.90
2013,06,29,00,18,15.90
2013,06,29,00,19,15.90
2013,06,29,00,20,15.90
2013,06,29,00,21,15.90
2013,06,29,00,22,15.90
2013,06,29,00,23,15.90
2013,06,29,00,24,15.90
2013,06,29,00,25,15.90
2013,06,29,00,26,15.90
2013,06,29,00,27,15.90
2013,06,29,00,28,15.90
2013,06,29,00,29,15.80
2013,06,29,00,30,15.80
2013,06,29,00,31,15.80
2013,06,29,00,32,15.80
2013,06,29,00,33,15.80
2013,06,29,00,34,15.80
2013,06,29,00,35,15.80
2013,06,29,00,36,15.80
2013,06,29,00,37,15.80
2013,06,29,00,38,15.80
2013,06,29,00,39,15.80
2013,06,29,00,40,15.80
2013,06,29,00,41,15.80
2013,06,29,00,42,15.80
2013,06,29,00,43,15.70
2013,06,29,00,44,15.70
2013,06,29,00,45,15.70
2013,06,29,00,46,15.70
2013,06,29,00,47,15.70
2013,06,29,00,48,15.70
2013,06,29,00,49,15.70
2013,06,29,00,50,15.70
2013,06,29,00,51,15.70
2013,06,29,00,52,15.70
2013,06,29,00,53,15.70
2013,06,29,00,54,15.70
2013,06,29,00,55,15.70
2013,06,29,00,56,15.70
2013,06,29,00,57,15.70
2013,06,29,00,58,15.70
2013,06,29,00,59,15.70
2013,06,29,01,00,15.70
2013,06,29,01,01,15.70
2013,06,29,01,02,15.70
2013,06,29,01,03,15.60
2013,06,29,01,04,15.70
2013,06,29,01,05,15.60
2013,06,29,01,06,15.60
2013,06,29,01,07,15.60
2013,06,29,01,08,15.60
2013,06,29,01,09,15.60
2013,06,29,01,10,15.60
2013,06,29,01,11,15.60
2013,06,29,01,12,15.60
2013,06,29,01,13,15.60
2013,06,29,01,14,15.60
2013,06,29,01,15,15.50
2013,06,29,01,16,15.50
2013,06,29,01,17,15.50
2013,06,29,01,18,15.50
2013,06,29,01,19,15.50
2013,06,29,01,20,15.50
2013,06,29,01,21,15.50
2013,06,29,01,22,15.50
2013,06,29,01,23,15.50
2013,06,29,01,24,15.40
2013,06,29,01,25,15.40
2013,06,29,01,26,15.40
2013,06,29,01,27,15.40
2013,06,29,01,28,15.40
2013,06,29,01,29,15.40
2013,06,29,01,30,15.40
2013,06,29,01,31,15.30
2013,06,29,01,32,15.30
2013,06,29,01,33,15.30
2013,06,29,01,34,15.30
2013,06,29,01,35,15.30
2013,06,29,01,36,15.30
2013,06,29,01,37,15.30
2013,06,29,01,38,15.30
2013,06,29,01,39,15.30
2013,06,29,01,40,15.30
2013,06,29,01,41,15.40
2013,06,29,01,42,15.40
2013,06,29,01,43,15.40
2013,06,29,01,44,15.40
2013,06,29,01,45,15.40
2013,06,29,01,46,15.40
2013,06,29,01,47,15.40
2013,06,29,01,48,15.40
2013,06,29,01,49,15.40
2013,06,29,01,50,15.40
2013,06,29,01,51,15.40
2013,06,29,01,52,15.40
2013,06,29,01,53,15.40
2013,06,29,01,54,15.40
2013,06,29,01,55,15.40
2013,06,29,01,56,15.40
2013,06,29,01,57,15.40
2013,06,29,01,58,15.40
2013,06,29,01,59,15.40
2013,06,29,02,00,15.40
2013,06,29,02,01,15.30
2013,06,29,02,02,15.30
2013,06,29,02,03,15.30
2013,06,29,02,04,15.30
2013,06,29,02,05,15.30
2013,06,29,02,06,15.30
2013,06,29,02,07,15.30
2013,06,29,02,08,15.30
2013,06,29,02,09,15.30
2013,06,29,02,10,15.30
2013,06,29,02,11,15.30
2013,06,29,02,12,15.30
2013,06,29,02,13,15.30
2013,06,29,02,14,15.30
2013,06,29,02,15,15.30
2013,06,29,02,16,15.30
2013,06,29,02,17,15.30
2013,06,29,02,18,15.30
2013,06,29,02,19,15.30
2013,06,29,02,20,15.30
2013,06,29,02,21,15.30
2013,06,29,02,22,15.30
2013,06,29,02,23,15.30
2013,06,29,02,24,15.30
2013,06,29,02,25,15.30
2013,06,29,02,26,15.30
2013,06,29,02,27,15.20
2013,06,29,02,28,15.20
2013,06,29,02,29,15.20
2013,06,29,02,30,15.20
2013,06,29,02,31,15.20
2013,06,29,02,32,15.30
2013,06,29,02,33,15.30
2013,06,29,02,34,15.30
2013,06,29,02,35,15.20
2013,06,29,02,36,15.20
2013,06,29,02,37,15.20
2013,06,29,02,38,15.20
2013,06,29,02,39,15.20
2013,06,29,02,40,15.20
2013,06,29,02,41,15.20
2013,06,29,02,42,15.20
2013,06,29,02,43,15.20
2013,06,29,02,44,15.20
2013,06,29,02,45,15.20
2013,06,29,02,46,15.20
2013,06,29,02,47,15.20
2013,06,29,02,48,15.20
2013,06,29,02,49,15.20
2013,06,29,02,50,15.20
2013,06,29,02,51,15.20
2013,06,29,02,52,15.20
2013,06,29,02,53,15.20
2013,06,29,02,54,15.20
2013,06,29,02,55,15.20
2013,06,29,02,56,15.20
2013,06,29,02,57,15.20
2013,06,29,02,58,15.20
2013,06,29,02,59,15.20
2013,06,29,03,00,15.20
2013,06,29,03,01,15.20
2013,06,29,03,02,15.20
2013,06,29,03,03,15.20
2013,06,29,03,04,15.20
2013,06,29,03,05,15.20
2013,06,29,03,06,15.20
2013,06,29,03,07,15.20
2013,06,29,03,08,15.20
2013,06,29,03,09,15.20
2013,06,29,03,10,15.20
2013,06,29,03,11,15.20
2013,06,29,03,12,15.20
2013,06,29,03,13,15.20
2013,06,29,03,14,15.20
2013,06,29,03,15,15.20
2013,06,29,03,16,15.20
2013,06,29,03,17,15.20
2013,06,29,03,18,15.20
2013,06,29,03,19,15.20
2013,06,29,03,20,15.20
2013,06,29,03,21,15.20
2013,06,29,03,22,15.20
2013,06,29,03,23,15.20
2013,06,29,03,24,15.20
2013,06,29,03,25,15.20
2013,06,29,03,26,15.20
2013,06,29,03,27,15.20
2013,06,29,03,28,15.20
2013,06,29,03,29,15.20
2013,06,29,03,30,15.20
2013,06,29,03,31,15.20
2013,06,29,03,32,15.20
2013,06,29,03,33,15.20
2013,06,29,03,34,15.20
2013,06,29,03,35,15.20
2013,06,29,03,36,15.10
2013,06,29,03,37,15.10
2013,06,29,03,38,15.10
2013,06,29,03,39,15.10
2013,06,29,03,40,15.10
2013,06,29,03,41,15.10
2013,06,29,03,42,15.10
2013,06,29,03,43,15.10
2013,06,29,03,44,15.10
2013,06,29,03,45,15.10
2013,06,29,03,46,15.10
2013,06,29,03,47,15.10
2013,06,29,03,48,15.10
2013,06,29,03,49,15.10
2013,06,29,03,50,15.10
2013,06,29,03,51,15.10
2013,06,29,03,52,15.10
2013,06,29,03,53,15.10
2013,06,29,03,54,15.10
2013,06,29,03,55,15.10
2013,06,29,03,56,15.00
2013,06,29,03,57,15.00
2013,06,29,03,58,15.00
2013,06,29,03,59,15.00
2013,06,29,04,00,15.00
2013,06,29,04,01,15.00
2013,06,29,04,02,15.00
2013,06,29,04,03,15.00
2013,06,29,04,04,15.00
2013,06,29,04,05,15.10
2013,06,29,04,06,15.10
2013,06,29,04,07,15.10
2013,06,29,04,08,15.10
2013,06,29,04,09,15.10
2013,06,29,04,10,15.10
2013,06,29,04,11,15.10
2013,06,29,04,12,15.10
2013,06,29,04,13,15.10
2013,06,29,04,14,15.10
2013,06,29,04,15,15.10
2013,06,29,04,16,15.10
2013,06,29,04,17,15.10
2013,06,29,04,18,15.10
2013,06,29,04,19,15.10
2013,06,29,04,20,15.10
2013,06,29,04,21,15.10
2013,06,29,04,22,15.10
2013,06,29,04,23,15.10
2013,06,29,04,24,15.00
2013,06,29,04,25,15.00
2013,06,29,04,26,15.00
2013,06,29,04,27,15.00
2013,06,29,04,28,15.00
2013,06,29,04,29,15.00
2013,06,29,04,30,15.00
2013,06,29,04,31,15.00
2013,06,29,04,32,15.00
2013,06,29,04,33,15.00
2013,06,29,04,34,15.00
2013,06,29,04,35,15.00
2013,06,29,04,36,15.00
2013,06,29,04,37,15.00
2013,06,29,04,38,15.00
2013,06,29,04,39,14.90
2013,06,29,04,40,14.90
2013,06,29,04,41,14.90
2013,06,29,04,42,14.90
2013,06,29,04,43,14.90
2013,06,29,04,44,14.90
2013,06,29,04,45,14.90
2013,06,29,04,46,14.90
2013,06,29,04,47,14.90
2013,06,29,04,48,14.90
2013,06,29,04,49,14.90
2013,06,29,04,50,14.90
2013,06,29,04,51,14.90
2013,06,29,04,52,14.90
2013,06,29,04,53,14.90
2013,06,29,04,54,14.90
2013,06,29,04,55,14.90
2013,06,29,04,56,14.90
2013,06,29,04,57,14.90
2013,06,29,04,58,14.90
2013,06,29,04,59,15.00
2013,06,29,05,00,15.00
2013,06,29,05,01,15.00
2013,06,29,05,02,15.00
2013,06,29,05,03,15.00
2013,06,29,05,04,15.00
2013,06,29,05,05,15.00
2013,06,29,05,06,15.00
2013,06,29,05,07,15.00
2013,06,29,05,08,15.00
2013,06,29,05,09,15.00
2013,06,29,05,10,15.00
2013,06,29,05,11,14.90
2013,06,29,05,12,14.90
2013,06,29,05,13,14.90
2013,06,29,05,14,14.90
2013,06,29,05,15,14.90
2013,06,29,05,16,14.90
2013,06,29,05,17,14.90
2013,06,29,05,18,14.90
2013,06,29,05,19,14.90
2013,06,29,05,20,14.90
2013,06,29,05,21,14.90
2013,06,29,05,22,14.90
2013,06,29,05,23,15.00
2013,06,29,05,24,15.00
2013,06,29,05,25,15.00
2013,06,29,05,26,15.00
2013,06,29,05,27,15.00
2013,06,29,05,28,15.00
2013,06,29,05,29,15.00
2013,06,29,05,30,15.00
2013,06,29,05,31,15.00
2013,06,29,05,32,15.00
2013,06,29,05,33,15.00
2013,06,29,05,34,15.00
2013,06,29,05,35,15.00
2013,06,29,05,36,15.00
2013,06,29,05,37,15.00
2013,06,29,05,38,15.00
2013,06,29,05,39,15.00
2013,06,29,05,40,15.00
2013,06,29,05,41,15.00
2013,06,29,05,42,15.00
2013,06,29,05,43,15.00
2013,06,29,05,44,15.00
2013,06,29,05,45,15.00
2013,06,29,05,46,15.00
2013,06,29,05,47,15.00
2013,06,29,05,48,15.00
2013,06,29,05,49,15.00
2013,06,29,05,50,15.00
2013,06,29,05,51,15.00
2013,06,29,05,52,15.00
2013,06,29,05,53,15.00
2013,06,29,05,54,15.00
2013,06,29,05,55,15.00
2013,06,29,05,56,15.00
2013,06,29,05,57,15.00
2013,06,29,05,58,15.00
2013,06,29,05,59,15.00
2013,06,29,06,00,15.10
2013,06,29,06,01,15.10
2013,06,29,06,02,15.10
2013,06,29,06,03,15.10
2013,06,29,06,04,15.10
2013,06,29,06,05,15.10
2013,06,29,06,06,15.20
2013,06,29,06,07,15.20
2013,06,29,06,08,15.20
2013,06,29,06,09,15.20
2013,06,29,06,10,15.20
2013,06,29,06,11,15.30
2013,06,29,06,12,15.30
2013,06,29,06,13,15.30
2013,06,29,06,14,15.30
2013,06,29,06,15,15.30
2013,06,29,06,16,15.30
2013,06,29,06,17,15.40
2013,06,29,06,18,15.40
2013,06,29,06,19,15.40
2013,06,29,06,20,15.40
2013,06,29,06,21,15.40
2013,06,29,06,22,15.50
2013,06,29,06,23,15.50
2013,06,29,06,24,15.60
2013,06,29,06,25,15.60
2013,06,29,06,26,15.60
2013,06,29,06,27,15.70
2013,06,29,06,28,15.70
2013,06,29,06,29,15.70
2013,06,29,06,30,15.80
2013,06,29,06,31,15.80
2013,06,29,06,32,15.80
2013,06,29,06,33,15.90
2013,06,29,06,34,15.90
2013,06,29,06,35,15.90
2013,06,29,06,36,16.00
2013,06,29,06,37,16.00
2013,06,29,06,38,16.10
2013,06,29,06,39,16.10
2013,06,29,06,40,16.20
2013,06,29,06,41,16.20
2013,06,29,06,42,16.20
2013,06,29,06,43,16.20
2013,06,29,06,44,16.20
2013,06,29,06,45,16.20
2013,06,29,06,46,16.20
2013,06,29,06,47,16.20
2013,06,29,06,48,16.20
2013,06,29,06,49,16.30
2013,06,29,06,50,16.30
2013,06,29,06,51,16.30
2013,06,29,06,52,16.30
2013,06,29,06,53,16.30
2013,06,29,06,54,16.40
2013,06,29,06,55,16.40
2013,06,29,06,56,16.40
2013,06,29,06,57,16.50
2013,06,29,06,58,16.50
2013,06,29,06,59,16.60
2013,06,29,07,00,16.60
2013,06,29,07,01,16.70
2013,06,29,07,02,16.80
2013,06,29,07,03,16.80
2013,06,29,07,04,16.80
2013,06,29,07,05,16.90
2013,06,29,07,06,16.90
2013,06,29,07,07,16.90
2013,06,29,07,08,17.00
2013,06,29,07,09,17.00
2013,06,29,07,10,17.10
2013,06,29,07,11,17.10
2013,06,29,07,12,17.20
2013,06,29,07,13,17.20
2013,06,29,07,14,17.30
2013,06,29,07,15,17.30
2013,06,29,07,16,17.40
2013,06,29,07,17,17.40
2013,06,29,07,18,17.50
2013,06,29,07,19,17.50
2013,06,29,07,20,17.60
2013,06,29,07,21,17.60
2013,06,29,07,22,17.70
2013,06,29,07,23,17.70
2013,06,29,07,24,17.80
2013,06,29,07,25,17.90
2013,06,29,07,26,18.00
2013,06,29,07,27,18.00
2013,06,29,07,28,18.10
2013,06,29,07,29,18.20
2013,06,29,07,30,18.20
2013,06,29,07,31,18.30
2013,06,29,07,32,18.30
2013,06,29,07,33,18.30
2013,06,29,07,34,18.40
2013,06,29,07,35,18.40
2013,06,29,07,36,18.50
2013,06,29,07,37,18.50
2013,06,29,07,38,18.60
2013,06,29,07,39,18.60
2013,06,29,07,40,18.70
2013,06,29,07,41,18.70
2013,06,29,07,42,18.80
2013,06,29,07,43,18.80
2013,06,29,07,44,18.80
2013,06,29,07,45,18.90
2013,06,29,07,46,18.90
2013,06,29,07,47,18.90
2013,06,29,07,48,19.00
2013,06,29,07,49,19.10
2013,06,29,07,50,19.10
2013,06,29,07,51,19.20
2013,06,29,07,52,19.20
2013,06,29,07,53,19.30
2013,06,29,07,54,19.30
2013,06,29,07,55,19.30
2013,06,29,07,56,19.40
2013,06,29,07,57,19.50
2013,06,29,07,58,19.50
2013,06,29,07,59,19.60
2013,06,29,08,00,19.70
2013,06,29,08,01,19.70
2013,06,29,08,02,19.80
2013,06,29,08,03,19.80
2013,06,29,08,04,19.90
2013,06,29,08,05,19.90
2013,06,29,08,06,19.90
2013,06,29,08,07,19.90
2013,06,29,08,08,19.90
2013,06,29,08,09,19.90
2013,06,29,08,10,19.90
2013,06,29,08,11,19.80
2013,06,29,08,12,19.80
2013,06,29,08,13,19.80
2013,06,29,08,14,19.80
2013,06,29,08,15,19.80
2013,06,29,08,16,19.90
2013,06,29,08,17,19.90
2013,06,29,08,18,20.00
2013,06,29,08,19,20.00
2013,06,29,08,20,20.10
2013,06,29,08,21,20.20
2013,06,29,08,22,20.30
2013,06,29,08,23,20.30
2013,06,29,08,24,20.40
2013,06,29,08,25,20.40
2013,06,29,08,26,20.40
2013,06,29,08,27,20.40
2013,06,29,08,28,20.40
2013,06,29,08,29,20.40
2013,06,29,08,30,20.30
2013,06,29,08,31,20.30
2013,06,29,08,32,20.30
2013,06,29,08,33,20.40
2013,06,29,08,34,20.40
2013,06,29,08,35,20.40
2013,06,29,08,36,20.40
2013,06,29,08,37,20.40
2013,06,29,08,38,20.50
2013,06,29,08,39,20.50
2013,06,29,08,40,20.60
2013,06,29,08,41,20.60
2013,06,29,08,42,20.70
2013,06,29,08,43,20.80
2013,06,29,08,44,20.80
2013,06,29,08,45,20.90
2013,06,29,08,46,20.90
2013,06,29,08,47,21.00
2013,06,29,08,48,21.10
2013,06,29,08,49,21.10
2013,06,29,08,50,21.10
2013,06,29,08,51,21.00
2013,06,29,08,52,21.00
2013,06,29,08,53,20.90
2013,06,29,08,54,20.90
2013,06,29,08,55,20.80
2013,06,29,08,56,20.80
2013,06,29,08,57,20.80
2013,06,29,08,58,20.80
2013,06,29,08,59,20.80
2013,06,29,09,00,20.80
2013,06,29,09,01,20.70
2013,06,29,09,02,20.60
2013,06,29,09,03,20.60
2013,06,29,09,04,20.60
2013,06,29,09,05,20.60
2013,06,29,09,06,20.70
2013,06,29,09,07,20.70
2013,06,29,09,08,20.80
2013,06,29,09,09,20.80
2013,06,29,09,10,20.80
2013,06,29,09,11,20.80
2013,06,29,09,12,20.90
2013,06,29,09,13,20.90
2013,06,29,09,14,21.00
2013,06,29,09,15,21.00
2013,06,29,09,16,21.00
2013,06,29,09,17,21.00
2013,06,29,09,18,21.00
2013,06,29,09,19,21.00
2013,06,29,09,20,21.00
2013,06,29,09,21,21.10
2013,06,29,09,22,21.20
2013,06,29,09,23,21.20
2013,06,29,09,24,21.20
2013,06,29,09,25,21.20
2013,06,29,09,26,21.20
2013,06,29,09,27,21.20
2013,06,29,09,28,21.20
2013,06,29,09,29,21.20
2013,06,29,09,30,21.20
2013,06,29,09,31,21.30
2013,06,29,09,32,21.30
2013,06,29,09,33,21.30
2013,06,29,09,34,21.30
2013,06,29,09,35,21.40
2013,06,29,09,36,21.40
2013,06,29,09,37,21.40
2013,06,29,09,38,21.40
2013,06,29,09,39,21.50
2013,06,29,09,40,21.50
2013,06,29,09,41,21.50
2013,06,29,09,42,21.50
2013,06,29,09,43,21.50
2013,06,29,09,44,21.50
2013,06,29,09,45,21.60
2013,06,29,09,46,21.60
2013,06,29,09,47,21.70
2013,06,29,09,48,21.70
2013,06,29,09,49,21.70
2013,06,29,09,50,21.70
2013,06,29,09,51,21.70
2013,06,29,09,52,21.70
2013,06,29,09,53,21.80
2013,06,29,09,54,21.80
2013,06,29,09,55,21.70
2013,06,29,09,56,21.70
2013,06,29,09,57,21.70
2013,06,29,09,58,21.70
2013,06,29,09,59,21.70
2013,06,29,10,00,21.80
2013,06,29,10,01,21.80
2013,06,29,10,02,21.80
2013,06,29,10,03,21.80
2013,06,29,10,04,21.80
2013,06,29,10,05,21.80
2013,06,29,10,06,21.70
2013,06,29,10,07,21.70
2013,06,29,10,08,21.70
2013,06,29,10,09,21.70
2013,06,29,10,10,21.80
2013,06,29,10,11,21.80
2013,06,29,10,12,21.80
2013,06,29,10,13,21.90
2013,06,29,10,14,21.90
2013,06,29,10,15,22.00
2013,06,29,10,16,22.10
2013,06,29,10,17,22.20
2013,06,29,10,18,22.30
2013,06,29,10,19,22.30
2013,06,29,10,20,22.30
2013,06,29,10,21,22.30
2013,06,29,10,22,22.40
2013,06,29,10,23,22.40
2013,06,29,10,24,22.50
2013,06,29,10,25,22.60
2013,06,29,10,26,22.60
2013,06,29,10,27,22.60
2013,06,29,10,28,22.50
2013,06,29,10,29,22.40
2013,06,29,10,30,22.40
2013,06,29,10,31,22.30
2013,06,29,10,32,22.30
2013,06,29,10,33,22.40
2013,06,29,10,34,22.40
2013,06,29,10,35,22.50
2013,06,29,10,36,22.60
2013,06,29,10,37,22.60
2013,06,29,10,38,22.60
2013,06,29,10,39,22.60
2013,06,29,10,40,22.60
2013,06,29,10,41,22.60
2013,06,29,10,42,22.60
2013,06,29,10,43,22.50
2013,06,29,10,44,22.60
2013,06,29,10,45,22.60
2013,06,29,10,46,22.60
2013,06,29,10,47,22.60
2013,06,29,10,48,22.50
2013,06,29,10,49,22.50
2013,06,29,10,50,22.50
2013,06,29,10,51,22.50
2013,06,29,10,52,22.50
2013,06,29,10,53,22.50
2013,06,29,10,54,22.50
2013,06,29,10,55,22.50
2013,06,29,10,56,22.40
2013,06,29,10,57,22.40
2013,06,29,10,58,22.40
2013,06,29,10,59,22.40
2013,06,29,11,00,22.40
2013,06,29,11,01,22.40
2013,06,29,11,02,22.40
2013,06,29,11,03,22.40
2013,06,29,11,04,22.40
2013,06,29,11,05,22.40
2013,06,29,11,06,22.50
2013,06,29,11,07,22.50
2013,06,29,11,08,22.50
2013,06,29,11,09,22.40
2013,06,29,11,10,22.40
2013,06,29,11,11,22.40
2013,06,29,11,12,22.40
2013,06,29,11,13,22.40
2013,06,29,11,14,22.30
2013,06,29,11,15,22.30
2013,06,29,11,16,22.30
2013,06,29,11,17,22.20
2013,06,29,11,18,22.10
2013,06,29,11,19,22.10
2013,06,29,11,20,22.10
2013,06,29,11,21,22.10
2013,06,29,11,22,22.10
2013,06,29,11,23,22.10
2013,06,29,11,24,22.10
2013,06,29,11,25,22.20
2013,06,29,11,26,22.20
2013,06,29,11,27,22.20
2013,06,29,11,28,22.20
2013,06,29,11,29,22.20
2013,06,29,11,30,22.20
2013,06,29,11,31,22.20
2013,06,29,11,32,22.20
2013,06,29,11,33,22.20
2013,06,29,11,34,22.20
2013,06,29,11,35,22.30
2013,06,29,11,36,22.30
2013,06,29,11,37,22.30
2013,06,29,11,38,22.30
2013,06,29,11,39,22.30
2013,06,29,11,40,22.30
2013,06,29,11,41,22.30
2013,06,29,11,42,22.30
2013,06,29,11,43,22.30
2013,06,29,11,44,22.30
2013,06,29,11,45,22.40
2013,06,29,11,46,22.40
2013,06,29,11,47,22.40
2013,06,29,11,48,22.50
2013,06,29,11,49,22.60
2013,06,29,11,50,22.60
2013,06,29,11,51,22.70
2013,06,29,11,52,22.80
2013,06,29,11,53,22.80
2013,06,29,11,54,22.90
2013,06,29,11,55,22.90
2013,06,29,11,56,23.00
2013,06,29,11,57,23.00
2013,06,29,11,58,23.10
2013,06,29,11,59,23.10
2013,06,29,12,00,23.10
2013,06,29,12,01,23.00
2013,06,29,12,02,23.00
2013,06,29,12,03,23.00
2013,06,29,12,04,23.00
2013,06,29,12,05,23.10
2013,06,29,12,06,23.20
2013,06,29,12,07,23.20
2013,06,29,12,08,23.20
2013,06,29,12,09,23.30
2013,06,29,12,10,23.40
2013,06,29,12,11,23.50
2013,06,29,12,12,23.60
2013,06,29,12,13,23.60
2013,06,29,12,14,23.70
2013,06,29,12,15,23.70
2013,06,29,12,16,23.70
2013,06,29,12,17,23.60
2013,06,29,12,18,23.60
2013,06,29,12,19,23.60
2013,06,29,12,20,23.60
2013,06,29,12,21,23.60
2013,06,29,12,22,23.60
2013,06,29,12,23,23.60
2013,06,29,12,24,23.70
2013,06,29,12,25,23.70
2013,06,29,12,26,23.60
2013,06,29,12,27,23.60
2013,06,29,12,28,23.60
2013,06,29,12,29,23.60
2013,06,29,12,30,23.70
2013,06,29,12,31,23.70
2013,06,29,12,32,23.70
2013,06,29,12,33,23.70
2013,06,29,12,34,23.70
2013,06,29,12,35,23.80
2013,06,29,12,36,23.80
2013,06,29,12,37,23.80
2013,06,29,12,38,23.80
2013,06,29,12,39,23.70
2013,06,29,12,40,23.70
2013,06,29,12,41,23.60
2013,06,29,12,42,23.60
2013,06,29,12,43,23.60
2013,06,29,12,44,23.70
2013,06,29,12,45,23.60
2013,06,29,12,46,23.60
2013,06,29,12,47,23.60
2013,06,29,12,48,23.70
2013,06,29,12,49,23.70
2013,06,29,12,50,23.70
2013,06,29,12,51,23.70
2013,06,29,12,52,23.80
2013,06,29,12,53,23.80
2013,06,29,12,54,23.80
2013,06,29,12,55,23.80
2013,06,29,12,56,23.80
2013,06,29,12,57,23.90
2013,06,29,12,58,24.00
2013,06,29,12,59,24.00
2013,06,29,13,00,24.10
2013,06,29,13,01,24.20
2013,06,29,13,02,24.30
2013,06,29,13,03,24.30
2013,06,29,13,04,24.30
2013,06,29,13,05,24.40
2013,06,29,13,06,24.40
2013,06,29,13,07,24.50
2013,06,29,13,08,24.60
2013,06,29,13,09,24.70
2013,06,29,13,10,24.70
2013,06,29,13,11,24.70
2013,06,29,13,12,24.80
2013,06,29,13,13,24.80
2013,06,29,13,14,24.90
2013,06,29,13,15,25.00
2013,06,29,13,16,25.10
2013,06,29,13,17,25.20
2013,06,29,13,18,25.30
2013,06,29,13,19,25.40
2013,06,29,13,20,25.30
2013,06,29,13,21,25.30
2013,06,29,13,22,25.20
2013,06,29,13,23,25.20
2013,06,29,13,24,25.20
2013,06,29,13,25,25.20
2013,06,29,13,26,25.20
2013,06,29,13,27,25.20
2013,06,29,13,28,25.20
2013,06,29,13,29,25.30
2013,06,29,13,30,25.40
2013,06,29,13,31,25.40
2013,06,29,13,32,25.50
2013,06,29,13,33,25.50
2013,06,29,13,34,25.60
2013,06,29,13,35,25.60
2013,06,29,13,36,25.70
2013,06,29,13,37,25.60
2013,06,29,13,38,25.50
2013,06,29,13,39,25.40
2013,06,29,13,40,25.30
2013,06,29,13,41,25.30
2013,06,29,13,42,25.20
2013,06,29,13,43,25.30
2013,06,29,13,44,25.30
2013,06,29,13,45,25.40
2013,06,29,13,46,25.50
2013,06,29,13,47,25.50
2013,06,29,13,48,25.60
2013,06,29,13,49,25.60
2013,06,29,13,50,25.60
2013,06,29,13,51,25.60
2013,06,29,13,52,25.60
2013,06,29,13,53,25.70
2013,06,29,13,54,25.70
2013,06,29,13,55,25.80
2013,06,29,13,56,25.80
2013,06,29,13,57,25.80
2013,06,29,13,58,25.90
2013,06,29,13,59,25.90
2013,06,29,14,00,26.00
2013,06,29,14,01,26.00
2013,06,29,14,02,26.10
2013,06,29,14,03,26.00
2013,06,29,14,04,26.00
2013,06,29,14,05,25.90
2013,06,29,14,06,25.90
2013,06,29,14,07,25.80
2013,06,29,14,08,25.70
2013,06,29,14,09,25.70
2013,06,29,14,10,25.70
2013,06,29,14,11,25.60
2013,06,29,14,12,25.60
2013,06,29,14,13,25.60
2013,06,29,14,14,25.50
2013,06,29,14,15,25.50
2013,06,29,14,16,25.40
2013,06,29,14,17,25.50
2013,06,29,14,18,25.50
2013,06,29,14,19,25.50
2013,06,29,14,20,25.60
2013,06,29,14,21,25.60
2013,06,29,14,22,25.70
2013,06,29,14,23,25.80
2013,06,29,14,24,25.80
2013,06,29,14,25,25.80
2013,06,29,14,26,25.80
2013,06,29,14,27,25.90
2013,06,29,14,28,25.80
2013,06,29,14,29,25.80
2013,06,29,14,30,25.80
2013,06,29,14,31,25.70
2013,06,29,14,32,25.70
2013,06,29,14,33,25.60
2013,06,29,14,34,25.50
2013,06,29,14,35,25.40
2013,06,29,14,36,25.50
2013,06,29,14,37,25.50
2013,06,29,14,38,25.50
2013,06,29,14,39,25.50
2013,06,29,14,40,25.40
2013,06,29,14,41,25.40
2013,06,29,14,42,25.40
2013,06,29,14,43,25.40
2013,06,29,14,44,25.40
2013,06,29,14,45,25.40
2013,06,29,14,46,25.50
2013,06,29,14,47,25.60
2013,06,29,14,48,25.60
2013,06,29,14,49,25.60
2013,06,29,14,50,25.60
2013,06,29,14,51,25.60
2013,06,29,14,52,25.60
2013,06,29,14,53,25.60
2013,06,29,14,54,25.60
2013,06,29,14,55,25.60
2013,06,29,14,56,25.50
2013,06,29,14,57,25.50
2013,06,29,14,58,25.40
2013,06,29,14,59,25.40
2013,06,29,15,00,25.40
2013,06,29,15,01,25.40
2013,06,29,15,02,25.40
2013,06,29,15,03,25.40
2013,06,29,15,04,25.30
2013,06,29,15,05,25.30
2013,06,29,15,06,25.30
2013,06,29,15,07,25.30
2013,06,29,15,08,25.30
2013,06,29,15,09,25.30
2013,06,29,15,10,25.30
2013,06,29,15,11,25.30
2013,06,29,15,12,25.30
2013,06,29,15,13,25.30
2013,06,29,15,14,25.30
2013,06,29,15,15,25.30
2013,06,29,15,16,25.40
2013,06,29,15,17,25.40
2013,06,29,15,18,25.50
2013,06,29,15,19,25.60
2013,06,29,15,20,25.60
2013,06,29,15,21,25.60
2013,06,29,15,22,25.60
2013,06,29,15,23,25.60
2013,06,29,15,24,25.70
2013,06,29,15,25,25.70
2013,06,29,15,26,25.70
2013,06,29,15,27,25.60
2013,06,29,15,28,25.60
2013,06,29,15,29,25.50
2013,06,29,15,30,25.40
2013,06,29,15,31,25.40
2013,06,29,15,32,25.40
2013,06,29,15,33,25.40
2013,06,29,15,34,25.40
2013,06,29,15,35,25.40
2013,06,29,15,36,25.50
2013,06,29,15,37,25.50
2013,06,29,15,38,25.50
2013,06,29,15,39,25.50
2013,06,29,15,40,25.50
2013,06,29,15,41,25.50
2013,06,29,15,42,25.40
2013,06,29,15,43,25.40
2013,06,29,15,44,25.40
2013,06,29,15,45,25.30
2013,06,29,15,46,25.30
2013,06,29,15,47,25.40
2013,06,29,15,48,25.40
2013,06,29,15,49,25.50
2013,06,29,15,50,25.60
2013,06,29,15,51,25.60
2013,06,29,15,52,25.60
2013,06,29,15,53,25.60
2013,06,29,15,54,25.50
2013,06,29,15,55,25.40
2013,06,29,15,56,25.40
2013,06,29,15,57,25.40
2013,06,29,15,58,25.30
2013,06,29,15,59,25.30
2013,06,29,16,00,25.30
2013,06,29,16,01,25.30
2013,06,29,16,02,25.40
2013,06,29,16,03,25.40
2013,06,29,16,04,25.40
2013,06,29,16,05,25.40
2013,06,29,16,06,25.50
2013,06,29,16,07,25.50
2013,06,29,16,08,25.40
2013,06,29,16,09,25.40
2013,06,29,16,10,25.40
2013,06,29,16,11,25.50
2013,06,29,16,12,25.50
2013,06,29,16,13,25.50
2013,06,29,16,14,25.60
2013,06,29,16,15,25.70
2013,06,29,16,16,25.80
2013,06,29,16,17,25.80
2013,06,29,16,18,25.80
2013,06,29,16,19,25.80
2013,06,29,16,20,25.80
2013,06,29,16,21,25.80
2013,06,29,16,22,25.80
2013,06,29,16,23,25.90
2013,06,29,16,24,25.90
2013,06,29,16,25,25.90
2013,06,29,16,26,25.90
2013,06,29,16,27,26.00
2013,06,29,16,28,26.00
2013,06,29,16,29,26.10
2013,06,29,16,30,26.10
2013,06,29,16,31,26.10
2013,06,29,16,32,26.10
2013,06,29,16,33,26.10
2013,06,29,16,34,26.10
2013,06,29,16,35,26.00
2013,06,29,16,36,26.00
2013,06,29,16,37,26.00
2013,06,29,16,38,26.00
2013,06,29,16,39,26.10
2013,06,29,16,40,26.10
2013,06,29,16,41,26.10
2013,06,29,16,42,26.00
2013,06,29,16,43,26.00
2013,06,29,16,44,25.90
2013,06,29,16,45,25.90
2013,06,29,16,46,25.90
2013,06,29,16,47,25.90
2013,06,29,16,48,25.90
2013,06,29,16,49,25.90
2013,06,29,16,50,26.00
2013,06,29,16,51,26.00
2013,06,29,16,52,26.00
2013,06,29,16,53,26.10
2013,06,29,16,54,26.10
2013,06,29,16,55,26.10
2013,06,29,16,56,26.20
2013,06,29,16,57,26.20
2013,06,29,16,58,26.30
2013,06,29,16,59,26.30
2013,06,29,17,00,26.30
2013,06,29,17,01,26.30
2013,06,29,17,02,26.30
2013,06,29,17,03,26.30
2013,06,29,17,04,26.30
2013,06,29,17,05,26.30
2013,06,29,17,06,26.30
2013,06,29,17,07,26.40
2013,06,29,17,08,26.40
2013,06,29,17,09,26.40
2013,06,29,17,10,26.40
2013,06,29,17,11,26.30
2013,06,29,17,12,26.30
2013,06,29,17,13,26.30
2013,06,29,17,14,26.40
2013,06,29,17,15,26.40
2013,06,29,17,16,26.50
2013,06,29,17,17,26.50
2013,06,29,17,18,26.50
2013,06,29,17,19,26.60